GW1238 Weather Reports


time (UTC)temp
C
wind
direction
speed
KPH
gust
KPH
rain 1hr
cm
rain 24hr
cm
rain mn
cm
humidity
%
barometer
mb
20260831134828 29 143 0.0 1.6 0.00 0.00 0.00 78 1024.6
20260831134325 29 176 1.6 1.6 0.00 0.00 0.00 80 1024.6
20260831133824 29 174 1.6 3.2 0.00 0.00 0.00 83 1024.6
20260831133324 28 172 0.0 1.6 0.00 0.00 0.00 84 1024.7
20260831132820 27 127 1.6 1.6 0.00 0.00 0.00 85 1024.7
20260831132315 29 168 0.0 1.6 0.00 0.00 0.00 83 1024.7
20260831131814 28 155 0.0 1.6 0.00 0.00 0.00 81 1024.8
20260831131311 29 159 0.0 1.6 0.00 0.00 0.00 82 1024.6
20260831130805 28 165 0.0 1.6 0.00 0.00 0.00 84 1024.7
20260831130301 29 171 1.6 1.6 0.00 0.00 0.00 84 1024.8
20260831125800 28 147 0.0 1.6 0.00 0.00 0.00 85 1024.5
20260831125256 28 160 0.0 0.0 0.00 0.00 0.00 91 1024.5
20260831124755 27 153 0.0 1.6 0.00 0.00 0.00 92 1024.4
20260831124252 26 160 0.0 1.6 0.00 0.00 0.00 96 1024.5
20260831123752 26 163 0.0 0.0 0.00 0.00 0.00 98 1024.3
20260831123251 25 135 0.0 0.0 0.00 0.00 0.00 99 1024.4
20260831122745 24 59 0.0 0.0 0.00 0.00 0.00 99 1024.3
20260831122241 23 101 0.0 0.0 0.00 0.00 0.00 99 1024.4
20260831121740 23 82 0.0 1.6 0.00 0.00 0.00 99 1024.1
20260831121237 23 345 1.6 1.6 0.00 0.00 0.00 99 1024.1
20260831120733 23 17 1.6 3.2 0.00 0.00 0.00 99 1024.1
20260831120232 23 342 1.6 1.6 0.00 0.00 0.00 99 1024.0
20260831115728 22 336 1.6 1.6 0.00 0.00 0.00 99 1024.1
20260831115224 22 340 1.6 3.2 0.00 0.00 0.00 99 1024.2
20260831114723 22 331 3.2 3.2 0.00 0.00 0.00 99 1023.8
20260831114222 22 335 1.6 4.8 0.00 0.00 0.00 99 1024.0
20260831113718 22 347 1.6 3.2 0.00 0.00 0.00 99 1023.8
20260831113213 22 339 1.6 3.2 0.00 0.00 0.00 99 1023.9
20260831112712 22 341 1.6 3.2 0.00 0.00 0.00 99 1023.9
20260831112207 22 336 1.6 3.2 0.00 0.00 0.00 99 1023.8
20260831111703 22 352 1.6 3.2 0.00 0.00 0.00 99 1023.6
20260831111159 22 335 3.2 3.2 0.00 0.00 0.00 99 1023.7
20260831110654 22 344 3.2 3.2 0.00 0.00 0.00 99 1023.7
20260831110144 22 315 1.6 3.2 0.00 0.00 0.00 99 1023.3
20260831105643 22 344 1.6 3.2 0.00 0.00 0.00 99 1023.4
20260831105138 22 334 3.2 4.8 0.00 0.00 0.00 99 1023.3
20260831104633 22 332 3.2 3.2 0.00 0.00 0.00 99 1023.3
20260831104130 22 341 3.2 3.2 0.00 0.00 0.00 99 1023.4
20260831103624 22 350 3.2 3.2 0.00 0.00 0.00 99 1023.3
20260831103120 22 330 1.6 3.2 0.00 0.00 0.00 99 1023.2
20260831102615 22 353 1.6 1.6 0.00 0.00 0.00 99 1023.4
20260831102110 22 357 1.6 4.8 0.00 0.00 0.00 99 1023.1
20260831101609 22 338 1.6 3.2 0.00 0.00 0.00 99 1023.3
20260831101105 22 352 1.6 3.2 0.00 0.00 0.00 99 1023.1
20260831100600 22 340 3.2 3.2 0.00 0.00 0.00 99 1023.2
20260831100052 22 356 3.2 3.2 0.00 0.00 0.00 99 1022.9
20260831095549 22 336 3.2 4.8 0.00 0.00 0.00 99 1022.9
20260831095044 22 341 1.6 3.2 0.00 0.00 0.00 99 1023.0
20260831094541 22 348 1.6 3.2 0.00 0.00 0.00 99 1022.9
20260831094036 22 326 1.6 3.2 0.00 0.00 0.00 99 1022.9
20260831093531 22 341 1.6 3.2 0.00 0.00 0.00 99 1022.6
20260831093027 22 326 1.6 3.2 0.00 0.00 0.00 99 1022.5
20260831092522 22 340 3.2 4.8 0.00 0.00 0.00 99 1022.7
20260831092018 22 344 3.2 4.8 0.00 0.00 0.00 98 1022.7
20260831091513 22 349 1.6 3.2 0.00 0.00 0.00 98 1022.6
20260831091009 22 337 3.2 3.2 0.00 0.00 0.00 98 1022.5
20260831090504 22 336 1.6 3.2 0.00 0.00 0.00 98 1022.4
20260831090000 22 337 3.2 3.2 0.00 0.00 0.00 98 1022.6
20260831085455 22 338 3.2 3.2 0.00 0.00 0.00 98 1022.7
20260831084954 22 346 3.2 3.2 0.00 0.00 0.00 98 1022.6
20260831084450 22 337 3.2 3.2 0.00 0.00 0.00 98 1022.4
20260831083947 22 322 3.2 3.2 0.00 0.00 0.00 97 1022.4
20260831083442 22 339 3.2 3.2 0.00 0.00 0.00 97 1022.5
20260831082941 22 346 3.2 3.2 0.00 0.00 0.00 98 1022.5
20260831082436 22 0 1.6 4.8 0.00 0.00 0.00 97 1022.2
20260831081931 22 341 1.6 3.2 0.00 0.00 0.00 97 1022.5
20260831081427 22 352 1.6 3.2 0.00 0.00 0.00 97 1022.5
20260831080923 22 345 3.2 3.2 0.00 0.00 0.00 97 1022.4
20260831080417 22 328 1.6 3.2 0.00 0.00 0.00 97 1022.4
20260831075913 22 344 3.2 3.2 0.00 0.00 0.00 97 1022.5
20260831075408 22 331 3.2 4.8 0.00 0.00 0.00 96 1022.7
20260831074909 22 336 3.2 3.2 0.00 0.00 0.00 96 1022.5
20260831074408 23 340 3.2 3.2 0.00 0.00 0.00 97 1022.3
20260831073903 22 345 3.2 3.2 0.00 0.00 0.00 97 1022.3
20260831073402 23 349 1.6 1.6 0.00 0.00 0.00 97 1022.4
20260831072857 23 324 3.2 4.8 0.00 0.00 0.00 96 1022.2
20260831072353 22 341 1.6 3.2 0.00 0.00 0.00 97 1022.4
20260831071849 23 340 3.2 3.2 0.00 0.00 0.00 96 1022.4
20260831071348 23 30 1.6 3.2 0.00 0.00 0.00 96 1022.6
20260831070843 23 348 3.2 3.2 0.00 0.00 0.00 96 1022.5
20260831070342 23 339 3.2 4.8 0.00 0.00 0.00 96 1022.6
20260831065841 22 324 3.2 3.2 0.00 0.00 0.00 96 1022.5
20260831065339 23 1 1.6 4.8 0.00 0.00 0.00 96 1022.7
20260831064835 23 6 3.2 4.8 0.00 0.00 0.00 96 1022.5
20260831064330 23 338 3.2 3.2 0.00 0.00 0.00 96 1022.7
20260831063826 23 340 3.2 4.8 0.00 0.00 0.00 96 1022.7
20260831063327 23 330 3.2 3.2 0.00 0.00 0.00 96 1022.5
20260831062826 23 339 3.2 3.2 0.00 0.00 0.00 95 1022.4
20260831062322 23 332 3.2 3.2 0.00 0.00 0.00 96 1022.4
20260831061820 23 334 3.2 3.2 0.00 0.00 0.00 96 1022.4
20260831061320 23 336 3.2 3.2 0.00 0.00 0.00 95 1022.7
20260831060816 23 336 3.2 3.2 0.00 0.00 0.00 95 1022.9
20260831060316 23 338 3.2 3.2 0.00 0.00 0.00 95 1022.6
20260831055815 23 335 3.2 3.2 0.00 0.00 0.00 95 1022.7
20260831055311 23 342 1.6 3.2 0.00 0.00 0.00 95 1022.7
20260831054806 23 329 3.2 3.2 0.00 0.00 0.00 95 1022.7
20260831054301 23 335 3.2 3.2 0.00 0.00 0.00 95 1022.6
20260831053800 23 330 3.2 3.2 0.00 0.00 0.00 95 1022.5
20260831053258 23 331 3.2 3.2 0.00 0.00 0.00 95 1022.7
20260831052753 23 343 3.2 3.2 0.00 0.00 0.00 95 1022.6
20260831052252 23 341 1.6 3.2 0.00 0.00 0.00 95 1022.6
20260831051750 23 329 3.2 3.2 0.00 0.00 0.00 94 1022.5
20260831051249 23 325 3.2 3.2 0.00 0.00 0.00 94 1022.4
20260831050744 23 340 3.2 3.2 0.00 0.00 0.00 94 1022.4
20260831050243 23 332 3.2 3.2 0.00 0.00 0.00 94 1022.6
20260831045733 23 332 3.2 3.2 0.00 0.00 0.00 94 1022.7
20260831045232 24 334 3.2 3.2 0.00 0.00 0.00 93 1022.7
20260831044727 23 329 3.2 3.2 0.00 0.00 0.00 93 1023.1
20260831044222 23 338 3.2 3.2 0.00 0.00 0.00 93 1022.7
20260831043718 24 336 1.6 3.2 0.00 0.00 0.00 93 1022.7
20260831043213 23 331 3.2 3.2 0.00 0.00 0.00 92 1022.9
20260831042712 23 335 3.2 3.2 0.00 0.00 0.00 92 1022.9
20260831042208 23 335 3.2 3.2 0.00 0.00 0.00 92 1022.6
20260831041702 23 341 3.2 4.8 0.00 0.00 0.00 91 1022.5
20260831041156 23 336 3.2 3.2 0.00 0.00 0.00 92 1022.7
20260831040651 24 338 3.2 3.2 0.00 0.00 0.00 91 1022.7
20260831040150 24 334 3.2 3.2 0.00 0.00 0.00 91 1022.6
20260831035649 24 331 3.2 3.2 0.00 0.00 0.00 91 1022.5
20260831035149 24 341 3.2 3.2 0.00 0.00 0.00 90 1022.7
20260831034648 24 326 3.2 3.2 0.00 0.00 0.00 90 1022.7
20260831034144 24 338 3.2 3.2 0.00 0.00 0.00 91 1022.6
20260831033640 24 344 3.2 3.2 0.00 0.00 0.00 90 1022.6
20260831033135 24 336 3.2 4.8 0.00 0.00 0.00 90 1022.5
20260831032634 24 324 3.2 4.8 0.00 0.00 0.00 90 1022.7
20260831032130 24 334 3.2 4.8 0.00 0.00 0.00 90 1022.7
20260831031630 24 330 3.2 4.8 0.00 0.00 0.00 89 1022.6
20260831031129 25 337 3.2 3.2 0.00 0.00 0.00 89 1022.7
20260831030628 24 330 3.2 3.2 0.00 0.00 0.00 89 1022.5
20260831030127 25 338 1.6 3.2 0.00 0.00 0.00 89 1022.6
20260831025626 25 328 3.2 3.2 0.00 0.00 0.00 88 1022.7
20260831025121 25 332 3.2 3.2 0.00 0.00 0.00 88 1022.9
20260831024617 25 329 3.2 3.2 0.00 0.00 0.00 88 1022.9
20260831024116 25 352 1.6 3.2 0.00 0.00 0.00 87 1022.7
20260831023614 25 325 3.2 3.2 0.00 0.00 0.00 88 1022.6
20260831023114 25 341 3.2 3.2 0.00 0.00 0.00 87 1022.7
20260831022614 25 334 3.2 4.8 0.00 0.00 0.00 87 1022.6
20260831022109 25 331 3.2 4.8 0.00 0.00 0.00 87 1022.4
20260831021608 25 333 3.2 4.8 0.00 0.00 0.00 87 1022.5
20260831021104 25 340 3.2 3.2 0.00 0.00 0.00 87 1022.5
20260831020600 25 330 3.2 4.8 0.00 0.00 0.00 87 1022.5
20260831020055 25 335 3.2 4.8 0.00 0.00 0.00 87 1022.3
20260831015550 25 342 3.2 3.2 0.00 0.00 0.00 87 1022.4
20260831015045 25 342 3.2 3.2 0.00 0.00 0.00 86 1022.2
20260831014540 25 335 3.2 3.2 0.00 0.00 0.00 86 1022.2
20260831014036 26 349 3.2 4.8 0.00 0.00 0.00 86 1022.0
20260831013532 26 334 3.2 3.2 0.00 0.00 0.00 86 1021.9
20260831013031 26 341 3.2 3.2 0.00 0.00 0.00 85 1022.0
20260831012526 26 331 1.6 3.2 0.00 0.00 0.00 85 1022.0
20260831012021 26 322 3.2 3.2 0.00 0.00 0.00 85 1021.9
20260831011520 26 338 3.2 4.8 0.00 0.00 0.00 85 1021.8
20260831011016 26 341 3.2 3.2 0.00 0.00 0.00 85 1021.9
20260831010516 26 338 3.2 3.2 0.00 0.00 0.00 84 1021.7
20260831010013 26 337 3.2 4.8 0.00 0.00 0.00 84 1021.6
20260831005508 26 346 3.2 4.8 0.00 0.00 0.00 83 1021.7
20260831005006 26 334 3.2 3.2 0.00 0.00 0.00 82 1021.7
20260831004504 26 330 3.2 3.2 0.00 0.00 0.00 83 1021.5
20260831003959 27 333 1.6 3.2 0.00 0.00 0.00 82 1021.4
20260831003455 27 336 3.2 4.8 0.00 0.00 0.00 82 1021.4
20260831002954 27 334 3.2 3.2 0.00 0.00 0.00 81 1021.4
20260831002454 27 349 3.2 3.2 0.00 0.00 0.00 82 1021.4
20260831001949 27 340 3.2 3.2 0.00 0.00 0.00 81 1021.2
20260831001444 27 342 1.6 3.2 0.00 0.00 0.00 80 1021.3
20260831000941 28 339 1.6 1.6 0.00 0.00 0.00 77 1021.2
20260831000437 29 6 1.6 1.6 0.00 0.00 0.00 74 1021.3
20260830235935 30 122 3.2 3.2 0.00 0.00 0.00 68 1021.2
20260830235430 30 120 1.6 3.2 0.00 0.00 0.00 70 1021.5
20260830234925 30 119 3.2 3.2 0.00 0.00 0.00 67 1021.5
20260830234420 30 127 3.2 4.8 0.00 0.00 0.00 70 1021.3
20260830233916 30 126 3.2 6.4 0.00 0.00 0.00 69 1021.3
20260830233411 30 126 4.8 6.4 0.00 0.00 0.00 67 1021.4
20260830232907 30 133 4.8 6.4 0.00 0.00 0.00 65 1021.4
20260830232403 31 132 6.4 6.4 0.00 0.00 0.00 65 1021.4
20260830231859 31 131 4.8 6.4 0.00 0.00 0.00 68 1021.3
20260830231354 31 131 6.4 6.4 0.00 0.00 0.00 67 1021.2
20260830230853 31 133 6.4 9.7 0.00 0.00 0.00 64 1021.4
20260830230349 31 107 3.2 3.2 0.00 0.00 0.00 65 1021.4
20260830225848 31 31 1.6 3.2 0.00 0.00 0.00 66 1021.2
20260830225344 31 82 1.6 4.8 0.00 0.00 0.00 64 1021.4
20260830224838 32 115 3.2 3.2 0.00 0.00 0.00 63 1021.3
20260830224332 32 111 1.6 3.2 0.00 0.00 0.00 66 1021.2
20260830223829 31 93 3.2 3.2 0.00 0.00 0.00 63 1021.4
20260830223325 31 93 3.2 4.8 0.00 0.00 0.00 63 1021.2
20260830222824 32 119 1.6 3.2 0.00 0.00 0.00 63 1021.4
20260830222320 32 149 3.2 3.2 0.00 0.00 0.00 60 1021.3
20260830221815 31 116 3.2 3.2 0.00 0.00 0.00 63 1021.3
20260830221313 31 122 3.2 4.8 0.00 0.00 0.00 60 1021.3
20260830220812 31 137 3.2 4.8 0.00 0.00 0.00 59 1021.1
20260830220312 31 147 3.2 4.8 0.00 0.00 0.00 65 1021.5
20260830215810 31 116 3.2 3.2 0.00 0.00 0.00 64 1021.4
20260830215305 31 129 3.2 3.2 0.00 0.00 0.00 64 1021.3
20260830214800 31 145 3.2 4.8 0.00 0.00 0.00 63 1021.5
20260830214254 31 138 4.8 6.4 0.00 0.00 0.00 63 1021.4
20260830213754 31 143 3.2 4.8 0.00 0.00 0.00 65 1021.4
20260830213249 32 123 3.2 3.2 0.00 0.00 0.00 65 1021.4
20260830212745 31 115 4.8 6.4 0.00 0.00 0.00 66 1021.5
20260830212241 32 104 3.2 3.2 0.00 0.00 0.00 63 1021.4
20260830211740 33 148 0.0 0.0 0.00 0.00 0.00 58 1021.4
20260830211239 32 85 3.2 3.2 0.00 0.00 0.00 59 1021.4
20260830210735 32 120 1.6 3.2 0.00 0.00 0.00 58 1021.4
20260830210234 32 111 1.6 3.2 0.00 0.00 0.00 59 1021.6
20260830205731 32 103 3.2 3.2 0.00 0.00 0.00 63 1021.5
20260830205227 31 125 3.2 4.8 0.00 0.00 0.00 60 1021.5
20260830204722 32 104 3.2 4.8 0.00 0.00 0.00 61 1021.5
20260830204221 32 105 3.2 3.2 0.00 0.00 0.00 60 1021.7
20260830203717 32 114 1.6 3.2 0.00 0.00 0.00 56 1021.7
20260830203213 33 133 0.0 1.6 0.00 0.00 0.00 55 1021.6
20260830202712 34 134 0.0 1.6 0.00 0.00 0.00 54 1021.7
20260830202208 34 138 1.6 1.6 0.00 0.00 0.00 52 1021.9
20260830201707 40 161 0.0 0.0 0.00 0.00 0.00 43 1021.7
20260830201203 40 174 0.0 0.0 0.00 0.00 0.00 41 1021.9
20260830200658 39 161 0.0 0.0 0.00 0.00 0.00 46 1021.9
20260830200157 38 169 0.0 0.0 0.00 0.00 0.00 44 1022.1
20260830195653 38 173 0.0 1.6 0.00 0.00 0.00 47 1022.1
20260830195150 36 164 1.6 1.6 0.00 0.00 0.00 50 1022.2
20260830194649 35 173 0.0 1.6 0.00 0.00 0.00 53 1022.4
20260830194149 34 152 0.0 0.0 0.00 0.00 0.00 55 1022.4
20260830193644 33 142 0.0 1.6 0.00 0.00 0.00 57 1022.4
20260830193139 33 141 0.0 1.6 0.00 0.00 0.00 55 1022.5
20260830192634 35 155 0.0 0.0 0.00 0.00 0.00 53 1022.4
20260830192129 35 116 1.6 1.6 0.00 0.00 0.00 55 1022.6
20260830191624 34 143 0.0 0.0 0.00 0.00 0.00 54 1022.6
20260830191119 32 155 0.0 1.6 0.00 0.00 0.00 61 1023.0
20260830190615 31 139 0.0 0.0 0.00 0.00 0.00 61 1022.7
20260830190110 31 99 1.6 3.2 0.00 0.00 0.00 65 1023.1
20260830185608 30 105 3.2 4.8 0.00 0.00 0.00 66 1023.2
20260830185104 31 112 1.6 3.2 0.00 0.00 0.00 62 1023.2
20260830184603 34 208 3.2 3.2 0.00 0.00 0.00 56 1023.3
20260830184103 33 170 0.0 0.0 0.00 0.00 0.00 59 1023.0
20260830183558 32 152 0.0 0.0 0.00 0.00 0.00 62 1023.6
20260830183054 30 117 1.6 3.2 0.00 0.00 0.00 66 1023.5
20260830182549 30 147 1.6 3.2 0.00 0.00 0.00 66 1023.7
20260830182045 30 144 0.0 3.2 0.00 0.00 0.00 66 1023.8
20260830181542 30 42 3.2 6.4 0.00 0.00 0.00 68 1023.9
20260830181041 30 133 0.0 1.6 0.00 0.00 0.00 67 1024.0
20260830180540 32 145 0.0 1.6 0.00 0.00 0.00 64 1023.9
20260830180035 31 201 3.2 4.8 0.00 0.00 0.00 65 1024.0
20260830175533 30 148 0.0 1.6 0.00 0.00 0.00 69 1024.0
20260830175028 30 135 1.6 3.2 0.00 0.00 0.00 68 1024.0
20260830174524 30 128 1.6 3.2 0.00 0.00 0.00 68 1024.1
20260830174024 30 193 3.2 6.4 0.00 0.00 0.00 68 1024.2
20260830173520 30 184 1.6 3.2 0.00 0.00 0.00 69 1024.2
20260830173015 31 215 4.8 4.8 0.00 0.00 0.00 68 1024.5
20260830172512 31 219 3.2 4.8 0.00 0.00 0.00 68 1024.5
20260830172008 31 171 0.0 1.6 0.00 0.00 0.00 69 1024.4
20260830171504 31 137 0.0 0.0 0.00 0.00 0.00 68 1024.6
20260830171003 30 150 0.0 0.0 0.00 0.00 0.00 71 1024.6
20260830170457 29 148 0.0 1.6 0.00 0.00 0.00 72 1024.8
20260830165955 29 141 0.0 1.6 0.00 0.00 0.00 73 1024.8
20260830165452 28 131 1.6 3.2 0.00 0.00 0.00 73 1024.9
20260830164948 29 125 1.6 3.2 0.00 0.00 0.00 74 1025.0
20260830164443 30 180 1.6 3.2 0.00 0.00 0.00 71 1025.0
20260830163939 30 176 0.0 1.6 0.00 0.00 0.00 72 1024.9
20260830163436 30 203 3.2 3.2 0.00 0.00 0.00 73 1025.2
20260830162935 29 213 3.2 6.4 0.00 0.00 0.00 73 1025.2
20260830162431 30 196 4.8 4.8 0.00 0.00 0.00 74 1025.2
20260830161931 30 187 1.6 3.2 0.00 0.00 0.00 71 1025.1
20260830161431 30 161 0.0 1.6 0.00 0.00 0.00 75 1025.3
20260830160926 28 185 1.6 6.4 0.00 0.00 0.00 76 1025.3
20260830160423 28 171 1.6 4.8 0.00 0.00 0.00 76 1025.1
20260830155917 28 196 1.6 3.2 0.00 0.00 0.00 78 1025.2
20260830155414 28 196 3.2 3.2 0.00 0.00 0.00 80 1025.3
20260830154908 27 224 4.8 9.7 0.00 0.00 0.00 80 1025.3
20260830154404 27 218 4.8 6.4 0.00 0.00 0.00 81 1025.3
20260830153901 27 224 3.2 6.4 0.00 0.00 0.00 81 1025.4
20260830153356 27 226 4.8 4.8 0.00 0.00 0.00 80 1025.6
20260830152855 27 205 4.8 9.7 0.00 0.00 0.00 82 1025.3
20260830152350 27 201 3.2 4.8 0.00 0.00 0.00 82 1025.5
20260830151844 27 207 3.2 6.4 0.00 0.00 0.00 82 1025.4
20260830151343 27 211 4.8 6.4 0.00 0.00 0.00 82 1025.4
20260830150838 27 194 0.0 3.2 0.00 0.00 0.00 82 1025.4
20260830150338 27 220 4.8 4.8 0.00 0.00 0.00 83 1025.5
20260830145832 27 244 3.2 4.8 0.00 0.00 0.00 83 1025.5
20260830145327 27 211 3.2 4.8 0.00 0.00 0.00 83 1025.7
20260830144823 27 229 3.2 6.4 0.00 0.00 0.00 84 1025.6
20260830144319 27 216 4.8 4.8 0.00 0.00 0.00 83 1025.4
20260830143814 27 218 4.8 6.4 0.00 0.00 0.00 84 1025.3
20260830143314 27 194 3.2 4.8 0.00 0.00 0.00 83 1025.4
20260830142808 27 224 6.4 6.4 0.00 0.00 0.00 84 1025.4
20260830142305 27 193 6.4 6.4 0.00 0.00 0.00 85 1025.3
20260830141759 27 204 6.4 6.4 0.00 0.00 0.00 85 1025.4
20260830141254 27 209 4.8 6.4 0.00 0.00 0.00 84 1025.4
20260830140749 27 212 8.0 9.7 0.00 0.00 0.00 84 1025.4
20260830140249 27 185 4.8 4.8 0.00 0.00 0.00 84 1025.3
20260830135743 27 185 6.4 6.4 0.00 0.00 0.00 83 1025.1
20260830135239 27 200 6.4 9.7 0.00 0.00 0.00 82 1025.5